Meteo Giornale » Osservazioni meteo Germania » Geilenkirchen

ore: 18:50 - Osservazioni Meteo Geilenkirchen
Lat. 50° 58' N Lon. 6° 3' E Alt. 90 metri s.l.m.

nuvoloso

21 °C

Nuvoloso

Temp. 24 Ore

16 °C

22 °C

Nord-Ovest

9.3 Km/h

Dew point 13 °C

Umidità 60 %

Visibilità  10 Km

Il sole sorge alle ore 06:49

Il sole tramonta alle ore 20:22

Data e Ora Cielo e Fenomeni T °C DP °C Um. % Pres. hPa Vis. km Vento km/h
Oggi h: 18:50 nuvoloso Nuvoloso 21 13 60 1020 10 NO 9.3
Oggi h: 17:50 molto_nuvoloso Molto Nuvoloso 21 13 60 1020 10 O/NO 18.5
Oggi h: 16:50 molto_nuvoloso Molto Nuvoloso 22 12 53 1020 10 O 20.3
Oggi h: 15:50 molto_nuvoloso Molto Nuvoloso 21 13 60 1020 10 O 20.3
Oggi h: 14:50 nuvoloso Nuvoloso 21 14 64 1020 10 O/SO 9.3
Oggi h: 13:50 molto_nuvoloso Molto Nuvoloso 20 15 72 1020 10 O/NO 22.2
Oggi h: 12:50 molto_nuvoloso Molto Nuvoloso 18 16 88 1020 10 S/SO 7.4
Oggi h: 11:50 molto_nuvoloso Molto Nuvoloso 18 16 88 1020 10 O/SO 13
Oggi h: 10:50 molto_nuvoloso Molto Nuvoloso 18 14 77 1020 10 O/SO 14.8
Oggi h: 09:50 molto_nuvoloso Molto Nuvoloso 17 14 82 1020 10 O/SO 16.7
Oggi h: 08:50 molto_nuvoloso Molto Nuvoloso 17 14 82 1019 10 SO 11.1
Oggi h: 07:50 molto_nuvoloso Molto Nuvoloso 16 14 87 1019 10 SO 11.1
Oggi h: 06:50 molto_nuvoloso Molto Nuvoloso 16 14 87 1019 10 SO 11.1
Oggi h: 05:50 nuvoloso Nuvoloso 16 14 87 1018 10 SO 13
Oggi h: 04:50 poco_nuvoloso Poco Nuvoloso 16 14 87 1018 10 O/SO 14.8
Oggi h: 03:50 sereno Sereno 16 14 87 1018 10 O/SO 9.3
Oggi h: 02:50 sereno Sereno 16 14 87 1018 10 O/SO 14.8
Oggi h: 01:50 sereno Sereno 16 14 87 1018 10 SO 11.1
Oggi h: 00:50 sereno Sereno 16 14 87 1018 10 O/SO 11.1
Ieri h: 23:50 nuvoloso Nuvoloso 17 14 82 1018 10 O/SO 13
Ieri h: 22:50 nuvoloso Nuvoloso 17 14 82 1017 10 SO 11.1
Ieri h: 21:50 poco_nuvoloso Poco Nuvoloso 17 14 82 1016 10 SO 11.1
Ieri h: 20:50 poco_nuvoloso Poco Nuvoloso 17 14 82 1016 10 O/SO 13
Ieri h: 19:50 poco_nuvoloso Poco Nuvoloso 19 15 77 1015 10 O/SO 16.7